Wind_Speed
18 18 19 19 20 21 21 21 21 21 21 21 22 22 22 22 22 22 21 21 20 21 20 20 19 19 18 18 18 17 17 16 16 15 15 14 14 13 12 12 11 11 11 10 10 9 8 8 7
20 20 20 21 22 22 22 22 22 22 23 23 24 24 24 24 24 24 24 23 22 23 22 21 21 21 20 19 19 19 18 18 17 17 16 16 15 15 14 13 13 13 12 12 11 11 10 10 9
21 21 22 22 23 23 22 22 22 24 25 25 26 27 27 26 26 26 26 26 26 25 25 24 23 23 22 21 21 20 19 19 19 18 18 17 17 17 16 16 15 14 14 14 13 12 12 11 11
21 22 23 23 23 23 23 23 23 25 26 27 28 28 28 28 29 29 29 29 28 28 27 27 26 25 24 24 23 22 21 21 20 20 19 19 19 19 18 17 17 17 16 16 15 14 14 14 13
22 22 23 24 24 23 24 24 25 26 27 28 29 29 29 29 30 30 30 30 30 30 30 29 29 27 27 26 25 24 24 23 22 22 22 21 21 20 20 19 19 18 18 17 17 16 16 16 15
22 23 24 24 25 25 25 26 26 27 28 28 29 29 29 29 30 31 31 32 32 32 31 31 31 30 29 28 27 26 26 25 25 25 24 24 23 22 22 22 21 20 20 19 18 18 18 18 17
23 23 24 24 25 26 26 26 27 28 28 29 29 30 30 30 31 32 33 33 33 33 32 32 33 32 31 30 29 28 27 27 27 26 26 25 25 24 23 23 23 23 22 22 21 20 19 19 18
23 24 24 25 25 26 27 27 28 28 29 30 31 31 31 32 32 33 34 34 35 34 34 34 34 34 34 33 32 30 29 28 28 28 28 27 26 26 26 25 25 24 24 24 23 22 21 21 20
24 24 25 26 27 27 28 28 29 30 31 32 32 33 33 33 34 34 34 35 35 35 35 35 36 35 35 35 34 34 32 31 29 29 29 29 28 28 27 27 26 26 26 26 26 25 24 23 23
25 25 26 27 28 29 29 30 30 31 32 33 33 34 34 34 35 35 35 36 36 36 36 36 37 37 36 36 36 36 35 33 31 31 31 30 30 29 28 28 28 27 27 27 27 27 26 26 25
26 26 26 27 29 29 29 30 31 31 32 33 34 34 34 35 35 35 36 37 37 38 38 38 38 38 38 38 38 37 36 35 33 32 33 32 31 31 30 30 29 28 28 28 28 28 28 27 27
26 26 27 28 29 29 29 30 30 31 32 33 35 35 35 36 36 36 37 38 38 39 39 39 38 39 39 39 40 39 38 37 36 35 35 34 33 33 32 31 31 30 30 30 30 30 29 28 28
27 27 28 28 29 29 30 31 31 31 32 33 34 35 35 36 37 37 39 40 40 40 40 40 39 40 41 41 41 41 40 39 39 37 36 35 35 35 33 33 32 32 31 31 31 30 30 29 29
27 28 28 28 29 29 30 31 32 32 34 34 35 35 36 36 37 38 39 41 41 41 42 42 41 41 41 41 42 43 42 41 41 39 38 36 37 37 36 35 34 32 32 32 31 31 30 30 30
27 28 28 28 29 30 31 31 33 34 35 35 36 36 36 37 38 39 40 41 41 41 42 43 43 43 43 42 43 44 43 42 42 41 40 38 38 37 37 36 35 34 33 33 32 32 32 32 31
27 28 28 28 30 30 32 32 34 35 36 36 37 37 37 38 38 39 40 41 41 41 42 43 44 44 44 44 43 43 44 43 42 42 41 39 38 38 38 37 36 35 34 34 33 33 33 34 33
27 28 28 28 29 30 32 33 34 35 36 36 36 37 38 38 38 39 40 42 42 42 42 43 44 44 44 45 43 43 43 43 43 42 42 41 40 39 39 38 38 37 36 35 35 35 34 34 33
28 27 27 28 29 29 31 31 33 34 35 35 36 36 38 38 38 38 39 41 42 41 43 43 44 45 45 44 43 43 43 43 42 42 42 42 42 40 39 39 38 38 38 37 37 36 35 35 34
28 28 28 29 30 30 29 30 30 32 33 34 34 34 35 36 36 36 37 39 40 40 41 43 43 44 44 44 43 43 42 42 42 41 42 41 42 42 40 40 39 39 39 38 37 36 36 36 35
29 29 29 30 30 30 29 29 29 30 32 31 32 32 33 33 34 34 35 37 40 40 40 41 42 43 43 44 44 43 42 43 42 41 42 42 42 42 41 40 40 40 39 39 38 37 38 37 37
29 30 30 30 30 30 30 29 28 29 30 31 31 31 31 32 33 33 34 36 38 40 40 40 42 42 42 44 44 43 43 44 44 43 41 42 42 42 42 41 40 41 41 41 40 40 39 39 39
29 29 30 30 30 31 30 31 28 28 29 30 30 30 31 32 33 33 34 35 37 39 40 40 41 41 42 43 44 44 44 44 44 43 43 43 43 43 42 42 40 40 41 42 41 41 40 40 40
30 30 30 30 30 31 30 31 29 27 28 28 29 29 30 31 32 33 33 35 37 38 39 41 42 42 41 42 43 43 44 44 45 44 44 44 44 44 44 43 42 40 41 42 42 42 41 41 41
30 29 30 30 31 31 30 31 29 27 28 28 28 28 28 29 30 31 33 34 35 37 38 40 41 41 41 43 43 43 44 45 46 46 45 45 45 45 46 45 43 42 42 42 42 42 42 42 42
29 29 30 31 32 32 31 31 29 28 28 28 28 27 28 29 29 31 32 33 34 36 36 38 40 41 41 41 43 43 44 45 46 46 46 45 45 46 46 45 45 44 43 43 43 42 42 42 42
30 30 30 31 33 33 32 31 29 28 28 28 28 28 28 28 27 29 31 33 34 35 36 36 38 40 41 41 42 43 44 45 45 45 45 46 45 45 45 45 45 44 44 44 43 43 43 43 44
30 30 31 32 34 34 33 32 29 28 28 28 28 29 28 28 28 29 31 32 33 34 36 36 38 40 41 41 42 43 44 45 46 46 46 46 45 46 45 46 46 44 43 43 43 44 45 45 46
31 32 32 31 33 35 34 31 29 28 28 28 28 28 28 29 29 29 30 31 32 34 35 36 36 38 41 42 42 42 44 45 46 46 46 46 45 46 46 47 46 46 45 43 44 44 45 47 47
30 31 31 31 32 34 36 32 30 29 28 28 28 28 27 28 29 28 28 30 32 33 35 36 37 38 39 40 41 42 42 44 44 45 46 46 46 46 45 45 45 45 45 45 44 44 44 45 46
31 31 31 31 33 34 35 33 29 28 29 29 29 29 29 29 29 28 28 28 30 31 33 35 37 38 39 39 41 43 42 42 43 43 44 45 45 46 45 45 45 45 45 45 44 43 43 43 44
Wind_Direction
273 271 270 268 267 266 268 267 265 263 261 260 258 257 255 254 254 252 250 248 246 247 247 246 246 246 245 244 242 241 241 240 240 239 237 237 237 236 237 239 240 240 243 243 242 244 245 245 246
273 272 269 269 268 269 269 269 266 264 263 262 261 260 258 256 254 252 250 247 245 245 246 246 246 247 247 245 243 242 242 242 242 240 239 239 238 239 239 241 243 243 246 247 246 245 244 245 247
274 272 270 270 270 270 270 269 267 265 264 262 261 260 258 256 255 253 251 248 246 245 245 245 245 246 247 246 244 242 242 243 242 242 240 241 241 242 242 242 245 246 248 248 248 247 247 247 248
275 274 270 270 271 271 271 270 266 264 264 263 263 261 260 258 256 254 251 249 247 245 245 245 244 245 246 246 245 242 242 242 242 243 242 242 243 245 245 245 247 247 248 248 247 247 248 250 250
276 274 272 271 272 272 272 272 269 266 265 264 263 261 260 259 257 255 252 250 248 245 245 245 244 243 245 246 246 244 243 243 244 245 245 244 245 246 246 247 247 249 249 249 248 249 250 250 251
274 275 273 273 273 273 274 273 272 269 266 264 262 261 259 258 257 256 253 251 248 246 244 244 244 243 244 245 246 245 243 244 245 246 247 246 246 246 247 247 247 248 249 249 249 250 250 251 251
274 274 274 275 275 274 274 273 272 269 267 264 262 261 259 258 256 255 253 251 249 246 244 244 244 244 243 244 244 244 243 244 246 247 248 247 247 247 247 247 247 248 248 249 249 250 251 250 248
274 274 276 277 277 276 274 273 272 269 266 265 263 261 260 258 257 255 252 250 248 246 244 243 244 243 242 243 244 244 244 244 246 246 247 246 246 247 247 246 247 248 248 248 249 250 250 250 248
275 275 276 277 278 277 275 273 271 268 266 265 264 263 261 260 258 255 252 249 248 246 244 243 243 244 243 242 243 243 243 244 244 246 246 246 246 246 247 246 246 247 248 248 249 249 249 249 248
276 276 278 278 277 276 275 274 272 268 266 266 265 265 263 261 260 256 253 250 247 246 244 243 243 243 243 242 242 242 242 243 242 243 245 246 246 245 247 247 246 247 248 248 249 249 248 249 248
277 277 278 278 277 276 275 274 273 270 267 266 266 266 264 262 260 257 254 251 248 245 244 243 243 243 243 242 242 242 242 242 242 243 244 245 246 245 246 247 246 247 247 248 249 248 247 248 248
281 281 282 280 279 277 277 276 275 272 270 268 267 266 265 264 261 256 252 251 249 247 244 243 243 243 242 242 241 242 242 243 244 244 245 245 247 246 245 246 246 247 247 248 250 250 248 248 248
284 283 284 282 280 278 278 277 276 274 272 270 269 267 266 264 261 258 252 250 250 248 246 243 243 243 243 242 242 241 242 243 244 244 245 247 246 247 245 246 247 247 248 248 250 250 249 249 249
288 286 284 282 281 279 277 277 276 274 274 272 270 268 267 265 262 259 255 250 249 248 245 243 243 243 243 243 242 241 243 245 245 244 245 246 245 246 246 246 246 247 247 246 247 249 249 249 249
290 287 283 282 282 280 279 277 277 276 276 275 272 270 267 265 262 259 256 251 249 249 246 243 243 243 243 244 243 243 243 245 245 245 245 244 244 245 246 246 246 245 245 246 248 249 249 250 250
290 287 284 283 284 282 280 279 278 278 277 276 273 270 267 265 262 260 256 251 249 249 247 245 243 243 244 244 243 243 243 244 245 244 244 243 244 245 245 244 244 244 245 246 248 249 250 250 250
291 288 286 285 286 285 282 281 279 278 278 277 275 271 268 265 262 261 258 252 250 249 247 246 244 244 243 244 244 243 243 243 244 244 244 242 243 245 246 245 244 245 245 246 248 248 249 249 249
296 293 289 287 288 288 285 284 282 280 280 279 276 273 270 265 263 262 259 253 249 250 249 247 246 244 244 244 244 243 242 243 243 244 243 244 245 245 246 246 246 246 246 246 247 248 248 249 249
298 295 293 291 290 290 288 287 285 283 282 281 278 275 272 266 264 261 258 253 249 249 248 247 246 244 243 242 241 242 242 242 242 243 243 245 246 246 246 246 246 247 247 247 247 247 247 248 249
299 297 295 292 291 292 291 289 287 285 284 283 282 278 273 267 266 263 257 253 249 248 248 246 246 244 243 241 240 241 242 242 243 243 243 244 245 246 247 246 247 247 248 247 247 247 248 249 249
300 300 298 295 294 293 294 292 290 287 286 285 283 279 275 268 266 265 259 252 249 249 248 245 244 244 243 242 240 241 241 242 242 244 244 245 245 244 246 247 248 248 248 248 248 248 248 249 250
303 300 299 298 297 295 297 296 293 290 287 286 284 281 278 271 267 265 261 253 250 249 247 246 244 243 242 242 241 242 242 241 242 244 245 246 246 245 245 246 248 249 248 248 248 250 250 250 250
305 303 300 300 300 299 299 298 297 292 289 288 286 283 281 275 270 265 261 257 252 249 247 245 243 242 241 240 240 241 241 241 243 244 245 247 247 245 244 245 247 247 248 248 248 250 251 250 250
305 305 301 300 301 301 301 300 301 296 293 291 288 285 284 279 272 266 263 258 253 250 248 244 242 241 241 241 240 241 241 241 243 243 245 246 247 246 245 246 246 247 247 248 249 251 251 251 252
305 305 305 304 303 303 303 302 304 300 296 293 291 288 286 281 275 267 261 258 254 251 248 244 242 241 242 241 241 242 241 242 242 243 244 245 246 247 246 246 246 247 248 249 249 249 250 251 252
306 307 306 305 306 305 305 304 303 301 298 294 292 290 287 282 276 269 264 259 255 253 250 248 245 243 243 243 243 243 243 242 241 243 243 244 245 246 245 245 247 248 248 249 249 250 250 250 251
308 306 306 304 305 305 305 305 302 300 297 296 293 292 287 281 275 271 265 260 256 254 253 252 247 245 244 244 245 244 244 243 242 243 244 244 245 246 245 247 248 248 249 250 251 252 252 252 252
306 306 305 304 305 305 306 306 306 302 300 297 296 294 290 285 278 273 268 263 261 260 257 253 250 248 246 245 246 246 244 244 244 244 245 245 245 246 246 247 247 248 249 251 252 253 254 253 252
305 305 304 302 301 303 305 306 306 304 299 297 297 297 294 291 285 277 269 267 266 264 260 256 253 252 250 248 247 247 246 244 244 244 245 246 246 246 246 245 247 248 249 251 252 254 255 254 253
302 303 303 302 300 300 302 306 305 302 297 295 295 295 294 293 287 279 273 271 267 265 262 258 255 254 252 251 249 247 247 244 243 243 244 245 246 247 246 246 247 249 250 250 252 253 255 256 254
Height
5802 5802 5802 5803 5803 5803 5803 5804 5804 5805 5806 5806 5807 5808 5809 5811 5812 5815 5815 5815 5817 5818 5820 5821 5822 5824 5826 5827 5828 5830 5832 5833 5835 5836 5837 5839 5840 5842 5843 5844 5846 5847 5848 5849 5849 5850 5851 5852 5853
5797 5798 5798 5798 5797 5797 5798 5799 5800 5800 5801 5801 5802 5803 5804 5805 5806 5807 5809 5810 5812 5814 5815 5817 5819 5820 5822 5823 5825 5826 5828 5830 5831 5833 5835 5836 5838 5839 5840 5842 5843 5845 5846 5847 5848 5849 5850 5851 5851
5792 5792 5793 5792 5792 5793 5794 5794 5795 5794 5795 5795 5795 5796 5798 5799 5800 5801 5803 5805 5807 5809 5811 5812 5814 5816 5818 5820 5821 5823 5824 5826 5828 5829 5831 5833 5835 5836 5838 5839 5841 5842 5844 5845 5846 5847 5848 5848 5849
5787 5787 5787 5787 5787 5788 5788 5788 5788 5788 5788 5789 5789 5790 5791 5792 5793 5795 5796 5798 5801 5803 5805 5807 5809 5811 5813 5815 5817 5818 5820 5822 5824 5825 5827 5829 5831 5833 5834 5836 5837 5839 5841 5842 5843 5844 5845 5846 5847
5782 5781 5781 5780 5781 5782 5782 5782 5782 5782 5781 5782 5782 5783 5784 5785 5786 5788 5789 5791 5794 5796 5798 5801 5803 5805 5808 5810 5812 5814 5815 5818 5819 5821 5823 5825 5827 5829 5831 5832 5834 5835 5837 5838 5840 5841 5842 5843 5844
5775 5775 5774 5774 5776 5776 5775 5775 5775 5774 5774 5774 5774 5775 5777 5778 5779 5780 5782 5784 5786 5789 5791 5794 5797 5799 5801 5804 5806 5808 5810 5812 5814 5816 5818 5820 5822 5824 5826 5828 5830 5831 5833 5835 5836 5838 5839 5840 5841
5769 5768 5768 5769 5769 5768 5768 5767 5767 5766 5766 5767 5767 5767 5769 5770 5771 5772 5774 5776 5778 5781 5784 5786 5789 5792 5795 5797 5800 5802 5804 5807 5809 5811 5813 5815 5817 5819 5821 5823 5825 5827 5829 5830 5832 5834 5835 5836 5838
5762 5762 5761 5762 5762 5761 5761 5760 5759 5759 5759 5759 5759 5760 5761 5762 5763 5764 5766 5768 5770 5773 5776 5778 5781 5784 5787 5790 5793 5795 5798 5800 5803 5805 5807 5810 5812 5814 5816 5818 5819 5821 5823 5825 5827 5829 5831 5832 5833
5755 5756 5755 5755 5754 5754 5753 5752 5752 5751 5751 5751 5751 5751 5752 5753 5754 5755 5757 5759 5761 5764 5767 5770 5773 5776 5779 5782 5785 5788 5791 5794 5796 5799 5801 5803 5806 5808 5810 5812 5814 5816 5818 5820 5822 5823 5825 5827 5829
5748 5748 5748 5748 5747 5746 5745 5745 5744 5743 5743 5743 5743 5743 5743 5744 5744 5746 5748 5750 5752 5755 5758 5762 5765 5768 5771 5774 5777 5780 5783 5786 5789 5792 5794 5797 5799 5801 5803 5805 5808 5810 5812 5813 5815 5817 5820 5822 5823
5741 5741 5741 5740 5739 5738 5737 5736 5735 5734 5734 5734 5734 5734 5734 5734 5734 5736 5738 5740 5743 5746 5749 5752 5756 5759 5762 5765 5769 5772 5775 5778 5782 5784 5787 5789 5791 5794 5796 5799 5801 5803 5805 5807 5809 5811 5813 5815 5818
5735 5734 5733 5732 5731 5730 5729 5728 5727 5726 5725 5725 5724 5724 5724 5724 5724 5725 5728 5730 5732 5736 5739 5742 5746 5749 5753 5756 5760 5763 5766 5770 5773 5776 5779 5781 5784 5786 5789 5791 5794 5796 5798 5800 5802 5804 5806 5809 5811
5728 5727 5725 5724 5723 5722 5721 5719 5718 5717 5716 5715 5714 5714 5714 5714 5714 5715 5717 5719 5722 5725 5729 5732 5736 5739 5742 5746 5750 5754 5757 5761 5764 5767 5770 5773 5775 5778 5781 5783 5786 5788 5790 5792 5794 5797 5799 5801 5804
5721 5719 5717 5716 5715 5714 5713 5711 5710 5709 5707 5706 5705 5704 5704 5704 5704 5705 5706 5708 5711 5714 5717 5721 5724 5728 5732 5735 5739 5744 5747 5751 5754 5757 5761 5764 5767 5769 5772 5775 5777 5780 5783 5785 5787 5790 5792 5795 5797
5713 5712 5710 5709 5707 5706 5705 5704 5702 5700 5698 5697 5696 5694 5693 5693 5693 5694 5695 5697 5700 5703 5706 5710 5713 5717 5721 5724 5728 5733 5737 5741 5744 5747 5751 5755 5758 5761 5764 5766 5769 5772 5775 5778 5780 5782 5785 5787 5790
5706 5705 5703 5702 5699 5698 5698 5696 5693 5690 5688 5687 5686 5684 5683 5683 5682 5683 5683 5685 5689 5692 5695 5698 5702 5706 5710 5714 5717 5722 5726 5730 5734 5737 5741 5745 5748 5751 5754 5758 5760 5763 5766 5769 5772 5775 5777 5780 5782
5700 5698 5696 5694 5691 5689 5687 5686 5684 5681 5679 5677 5675 5674 5673 5672 5672 5672 5672 5674 5677 5680 5683 5687 5691 5695 5699 5703 5706 5711 5715 5720 5723 5727 5731 5735 5739 5742 5745 5749 5752 5755 5758 5761 5764 5766 5769 5772 5774
5693 5691 5689 5687 5683 5681 5678 5677 5675 5672 5669 5667 5665 5663 5662 5661 5661 5661 5661 5663 5666 5669 5672 5676 5679 5683 5687 5692 5696 5700 5704 5709 5713 5717 5721 5725 5729 5732 5736 5739 5743 5746 5749 5752 5755 5758 5761 5763 5766
5687 5685 5682 5680 5676 5673 5670 5669 5666 5663 5660 5657 5655 5653 5652 5651 5651 5651 5651 5652 5655 5658 5661 5665 5668 5672 5676 5681 5685 5690 5694 5699 5703 5707 5711 5715 5719 5723 5726 5730 5733 5737 5740 5743 5746 5749 5752 5755 5757
5681 5678 5676 5673 5669 5665 5663 5661 5658 5655 5652 5649 5646 5644 5643 5642 5641 5641 5641 5643 5645 5647 5650 5654 5656 5661 5666 5671 5676 5680 5685 5689 5693 5697 5701 5704 5709 5713 5717 5721 5724 5728 5731 5734 5737 5740 5743 5745 5748
5675 5672 5668 5665 5662 5658 5655 5654 5652 5648 5644 5641 5638 5636 5634 5633 5632 5632 5633 5634 5636 5638 5640 5643 5647 5651 5655 5660 5665 5670 5674 5679 5683 5687 5691 5695 5698 5702 5707 5710 5714 5718 5721 5724 5727 5730 5733 5736 5738
5669 5666 5662 5658 5655 5652 5648 5645 5645 5641 5637 5634 5631 5629 5626 5625 5624 5624 5624 5625 5627 5628 5630 5634 5637 5641 5645 5650 5655 5660 5664 5669 5674 5678 5681 5685 5688 5692 5696 5700 5704 5707 5711 5714 5717 5720 5723 5726 5728
5662 5659 5656 5652 5648 5645 5642 5637 5637 5633 5630 5627 5624 5622 5619 5617 5616 5615 5615 5616 5618 5620 5622 5625 5628 5632 5636 5640 5645 5650 5654 5659 5663 5667 5671 5674 5678 5681 5685 5689 5693 5697 5700 5704 5706 5709 5712 5715 5718
5656 5653 5650 5646 5642 5639 5635 5631 5629 5625 5622 5620 5617 5614 5612 5610 5609 5608 5607 5608 5609 5611 5613 5616 5619 5623 5626 5630 5635 5640 5644 5648 5652 5656 5660 5663 5667 5671 5675 5679 5683 5686 5690 5693 5696 5699 5702 5704 5707
5650 5646 5642 5638 5634 5632 5628 5624 5623 5619 5616 5612 5610 5608 5605 5603 5602 5601 5600 5601 5601 5603 5605 5607 5610 5614 5617 5620 5625 5629 5633 5637 5641 5644 5649 5653 5656 5660 5664 5668 5672 5675 5679 5682 5685 5688 5691 5694 5696
5644 5640 5636 5631 5627 5624 5621 5618 5617 5613 5609 5606 5603 5601 5599 5596 5595 5594 5593 5593 5594 5595 5597 5600 5602 5605 5607 5611 5615 5618 5622 5626 5630 5634 5638 5642 5646 5649 5653 5657 5661 5665 5668 5671 5674 5677 5680 5682 5685
5637 5633 5630 5625 5621 5617 5615 5613 5611 5607 5603 5600 5597 5594 5591 5589 5587 5586 5585 5585 5586 5588 5589 5591 5593 5596 5598 5601 5604 5608 5612 5615 5619 5622 5626 5630 5634 5638 5641 5645 5650 5654 5657 5660 5663 5666 5668 5671 5673
5632 5627 5623 5618 5613 5609 5607 5606 5604 5600 5596 5593 5590 5587 5584 5582 5580 5579 5578 5578 5579 5579 5581 5582 5584 5587 5589 5591 5594 5597 5600 5604 5608 5612 5615 5619 5623 5626 5630 5634 5638 5642 5646 5649 5651 5654 5657 5659 5662
5626 5622 5616 5612 5608 5603 5599 5601 5598 5593 5589 5586 5584 5581 5578 5576 5574 5572 5571 5571 5571 5571 5572 5573 5575 5577 5579 5581 5584 5587 5589 5592 5596 5601 5604 5607 5611 5614 5618 5622 5627 5631 5634 5637 5640 5643 5645 5648 5650
5619 5615 5611 5607 5602 5598 5593 5596 5591 5587 5583 5580 5577 5575 5572 5570 5567 5566 5565 5564 5563 5563 5564 5565 5566 5568 5570 5572 5574 5576 5578 5581 5585 5589 5592 5595 5599 5603 5607 5611 5615 5619 5623 5626 5629 5631 5634 5636 5638